Location: Most
(50.5133°N, 13.6207°E)
Time: 01:26:06
(UTC+01:00)

ISS - Pass Details

Date: 14 July 2018
Orbit: 401 x 408 km, 51.6° (Epoch: 20 November)

Event Time Altitude Azimuth Distance (km) Brightness Sun altitude
Exits shadow 02:44:29 19° 255° (WSW) 1,046 -2.1 -14.9°
Maximum altitude 02:46:43 90° 179° (S) 422 -3.8 -14.8°
Drops below altitude 10° 02:50:05 10° 77° (ENE) 1,499 -0.4 -14.6°
Sets 02:52:12 0° 77° (ENE) 2,365 0.6 -14.4°
